Location: Saluda
(35.2377°N, 82.3468°W)
Time: 15:27:25
(UTC+00:00)

Explorer 11/Cluster Stage 4 - Pass Details

Date: 12 October 2022
Orbit: 466 x 1247 km, 28.8° (Epoch: 08 December)

Event Time Altitude Azimuth Distance (km) Brightness Sun altitude
Rises 17:07:06 0° 270° (W) 4,083 10.2 47.1°
Reaches altitude 10° 17:10:07 10° 262° (W) 3,171 9.8 47.2°
Maximum altitude 17:17:28 39° 198° (SSW) 1,791 10.4 47.2°
Drops below altitude 10° 17:24:43 10° 133° (SE) 3,126 10.2 47.1°
Sets 17:27:42 0° 126° (SE) 4,020 10.5 47.1°
